Miscellaneous Local Product
Issued by NWS Hastings, NE

Home | Current Version | Previous Version | Graphics & Text | Print | Product List | Glossary On
Versions: 1 2 3 4 5 6 7 8 9 10 11 12 13 14 15 16 17 18 19 20 21 22 23 24 25 26 27 28 29 30 31 32 33 34 35 36 37 38 39 40 41 42 43 44 45 46 47 48 49 50
000
AXUS43 KGID 301302
MISGRI

GID CWA HOURLY WEATHER ROUNDUP
NATIONAL WEATHER SERVICE HASTINGS NE
800 AM CDT FRI SEP 30 2016

NOTE: "FAIR" INDICATES FEW OR NO CLOUDS BELOW 12,000 FEET WITH NO
SIGNIFICANT WEATHER AND/OR OBSTRUCTIONS TO VISIBILITY.

...SOUTH CENTRAL NEBRASKA...

CITY           SKY/WX    TMP DP  RH WIND       PRES   REMARKS
GRAND ISLAND   CLOUDY    41  38  89 CALM      30.31S
HASTINGS       CLEAR     43  40  89 CALM      30.31S
KEARNEY        CLOUDY    41  36  81 CALM      30.30S
ORD            FOG       35  34  96 CALM      30.29S VSB 1/4
YORK           CLEAR     39  39 100 CALM      30.31S
AURORA         CLEAR     42  42  99 CALM      30.30S
LEXINGTON      CLOUDY    40  39  94 E5        30.29S
HOLDREGE       CLOUDY    41  40  96 CALM      30.30R
HEBRON         CLEAR     40  39  97 CALM      30.30S

...NEBRASKA PANHANDLE...

CITY           SKY/WX    TMP DP  RH WIND       PRES   REMARKS
CHADRON        CLOUDY    54  40  59 S12       30.14F
ALLIANCE       CLOUDY    44  40  85 SE7       30.19F
SCOTTSBLUFF    PTCLDY    46  40  79 SE9       30.20R
SIDNEY         CLOUDY    43  38  82 SE6       30.22S

...WESTERN AND NORTH CENTRAL NEBRASKA...

CITY           SKY/WX    TMP DP  RH WIND       PRES   REMARKS
VALENTINE      CLOUDY    46  42  86 S6        30.25S
AINSWORTH      CLOUDY    46  44  93 S7        30.26S
ONEILL         CLOUDY    43  41  95 SE3       30.30S
BROKEN BOW     CLOUDY    36  35  96 CALM      30.28S
IMPERIAL       CLOUDY    44  41  89 SE9       30.24S
NORTH PLATTE   CLEAR     42  41  96 E7        30.26F
MCCOOK         CLEAR     44  42  93 E5        30.26F

...EASTERN NEBRASKA...

CITY           SKY/WX    TMP DP  RH WIND       PRES   REMARKS
NORFOLK        FOG       40  38  93 CALM      30.31S VSB 1
SO SIOUX CITY  CLEAR     42  42 100 CALM      30.33R
TEKAMAH        CLEAR     45  42  89 N6        30.32R
COLUMBUS         N/A     39  30  70 CALM      30.32R VSB 1/2
ALBION         CLOUDY    37  36  95 CALM      30.31S
OMAHA EPPLEY   CLEAR     47  43  86 N6        30.31R
MILLARD        CLEAR     48  46  92 CALM      30.31R
LINCOLN        CLEAR     44  42  93 N3        30.32R
NEBRASKA CITY  CLEAR     49  47  93 N5        30.29S
BEATRICE       CLEAR     42  42  98 CALM      30.30S
FALLS CITY     CLEAR     48  46  93 NW7       30.27F

...NORTHERN KANSAS...

CITY           SKY/WX    TMP DP  RH WIND       PRES   REMARKS
GOODLAND       CLEAR     47  42  83 S15       30.21F
HILL CITY      CLOUDY    43  41  93 E5        30.28S FOG
NORTON         SUNNY     43  37  81 CALM      30.26F
PHILLIPSBURG   CLEAR     43  43 100 NE3       30.29S
SMITH CENTER   CLEAR     45  43  93 CALM      30.31S
BELOIT         CLEAR     39  37  93 CALM      30.30R
HAYS           CLEAR     39  28  65 CALM      30.28S
RUSSELL        NOT AVBL
CONCORDIA      CLEAR     45  44  97 W3        30.30R FOG
SALINA         CLEAR     47  45  93 CALM      30.30R
TOPEKA         CLEAR     48  46  93 CALM      30.27S



USA.gov is the U.S. government's official web portal to all federal, state and local government web resources and services.